GFSSW_prec_cloud_087.txt.gz
Cloud_Cover
21 12 94 100 100 90 90 78 100 100 100 100 97 37 39 84 100 100 84 64 87 100 100 100 100 100 100 100 63 78 99 100 100 100 100 100 100 100 97 100 100 96 33 17 5
100 59 68 100 100 100 100 100 100 100 100 100 98 17 27 8 60 14 12 89 100 60 100 100 100 100 100 100 100 99 80 100 100 100 100 100 100 100 79 93 100 100 67 100 42
99 95 100 100 100 100 100 100 100 100 100 8 4 14 7 26 24 0 0 2 45 66 58 94 100 100 100 100 100 100 100 99 99 100 100 100 100 100 100 100 100 47 100 100 59
100 100 100 100 100 100 100 100 100 98 100 64 10 6 0 19 0 0 0 0 0 3 23 85 100 100 100 100 100 100 100 100 100 83 100 100 100 100 22 100 100 100 100 100 48
89 100 100 100 100 100 100 100 100 100 100 100 69 15 1 0 0 0 0 0 0 0 0 2 11 54 100 100 100 99 52 86 100 100 100 100 100 100 100 95 100 95 100 100 100
25 93 100 100 100 100 100 100 100 100 100 100 36 28 0 0 0 0 0 0 0 0 0 0 0 0 1 7 56 98 99 100 98 100 100 100 100 100 100 100 100 100 83 17 26
5 18 41 100 100 100 100 100 66 65 100 100 24 8 0 0 0 0 0 0 0 0 0 0 0 0 0 0 0 0 4 31 87 28 5 16 99 44 98 32 66 100 100 100 38
5 7 20 52 93 100 45 34 34 28 100 100 10 0 0 0 0 0 0 0 0 0 0 0 0 0 0 0 0 0 0 0 0 3 35 5 32 33 37 1 3 20 100 100 100
100 75 23 55 24 92 64 7 12 15 40 11 2 0 0 0 0 0 0 0 0 0 0 0 0 0 0 0 0 0 0 0 0 0 0 0 2 3 0 0 0 0 0 39 8
98 99 98 97 63 84 34 100 54 6 5 5 10 15 0 0 0 0 0 0 0 0 0 0 0 0 0 0 0 0 0 0 0 0 0 0 0 0 0 0 0 1 0 0 0
100 100 100 100 95 81 33 76 83 74 42 5 7 31 7 0 0 0 0 0 0 0 0 0 0 0 0 0 0 0 0 0 0 0 0 0 0 0 0 0 0 0 0 0 0
100 100 100 100 100 97 69 99 100 83 100 54 9 10 26 5 5 1 0 0 0 0 0 1 0 0 0 0 0 0 0 0 0 0 0 0 0 0 0 0 0 0 0 0 0
100 100 100 100 100 100 100 100 32 30 98 95 39 81 48 44 5 5 5 5 2 3 0 5 0 0 0 0 0 0 0 0 0 0 0 0 0 0 0 0 0 0 0 0 0
100 100 100 100 100 100 100 100 100 88 84 100 92 66 83 79 96 86 23 10 8 5 5 3 0 0 0 2 0 5 0 0 0 0 0 0 0 0 0 0 0 0 0 0 0
100 100 100 100 100 100 100 98 100 100 100 90 100 98 37 19 86 95 100 7 99 64 34 5 5 5 0 0 0 0 5 3 0 0 0 0 0 89 4 0 0 0 0 0 0
93 81 100 100 100 100 100 100 100 100 100 100 100 100 94 66 42 100 100 98 35 98 11 43 5 41 8 3 0 0 0 4 1 5 3 4 0 40 36 76 100 12 4 0 0
5 8 5 25 100 100 100 100 100 100 99 100 100 100 100 100 74 100 74 100 100 93 87 98 94 32 5 5 59 25 12 32 10 5 3 31 0 5 15 57 100 21 5 3 0
5 5 5 5 75 99 100 100 100 100 88 100 100 100 100 100 100 86 82 69 46 73 100 100 100 100 99 90 48 75 54 92 82 34 5 6 2 5 6 46 15 74 21 0 0
5 5 5 5 6 93 100 100 100 100 100 100 100 100 100 100 100 100 100 100 100 97 100 100 100 100 100 100 80 69 99 70 58 12 18 44 5 5 76 60 39 5 0 0 0
8 5 5 5 87 100 100 100 100 100 100 100 100 100 100 100 100 100 100 100 100 71 88 100 98 100 83 100 100 100 100 47 100 100 71 5 5 4 5 5 1 3 3 4 4
35 5 5 5 49 90 100 100 100 100 100 100 100 100 100 100 100 100 100 99 96 88 99 91 86 100 99 100 100 100 100 78 94 100 100 83 5 54 1 0 0 5 21 8 22
45 5 5 36 17 91 100 100 100 100 100 100 100 100 100 100 100 100 100 100 100 98 69 100 100 100 98 100 80 100 100 93 62 92 100 94 34 0 0 0 0 3 1 0 1
28 5 5 61 58 65 57 100 100 100 100 100 100 100 100 100 100 100 100 100 100 86 100 99 80 76 100 100 63 99 78 100 87 100 94 69 7 0 0 0 38 12 1 7 1
5 5 8 47 53 91 86 100 100 100 100 100 100 100 100 100 100 100 100 100 100 99 78 77 85 100 100 100 91 77 100 100 99 87 5 34 0 0 12 52 3 74 6 12 68
59 62 20 12 61 60 89 99 100 100 100 100 100 100 100 100 100 100 97 100 100 99 98 100 83 70 100 86 52 98 80 100 84 12 35 3 0 0 5 6 94 5 7 100 100
74 99 98 93 96 78 19 100 100 100 100 100 100 100 100 100 100 100 100 92 100 97 87 99 7 37 100 87 99 23 89 42 39 5 5 4 8 73 8 7 89 82 42 53 100
100 98 73 83 92 100 100 100 100 100 100 100 100 100 100 100 98 79 100 100 67 100 100 72 25 61 98 62 76 87 99 33 40 5 5 39 6 6 6 17 95 96 98 97 99

GFSSW_prec_cloud_093.txt.gz
Cloud_Cover
100 100 100 100 100 100 100 100 100 100 100 98 23 22 100 100 100 100 96 52 68 100 100 100 100 99 100 100 100 100 94 100 100 100 100 38 78 61 11 5 23 59 92 99 77
100 100 100 100 100 100 100 100 100 88 100 61 95 52 15 76 100 100 98 99 24 100 100 100 100 100 100 100 100 100 100 100 100 100 100 100 97 100 97 5 95 89 97 100 100
100 100 100 100 100 100 100 100 100 100 100 82 16 99 8 95 87 84 100 100 100 32 51 47 100 100 100 100 100 100 98 70 100 100 100 100 100 92 100 100 100 51 50 93 100
100 100 100 100 100 100 100 100 100 100 100 82 39 16 59 85 21 5 5 9 26 12 9 90 31 79 100 100 100 100 100 83 52 100 100 100 100 91 50 98 100 42 49 57 100
100 100 100 100 100 100 100 100 100 100 100 100 99 38 2 0 0 0 1 3 4 5 4 2 5 5 51 53 56 100 100 100 100 100 100 100 100 93 100 51 69 94 60 9 55
100 100 100 39 99 100 100 100 100 100 100 100 97 97 8 0 0 0 0 0 0 0 0 0 0 1 6 44 68 71 96 100 100 100 100 100 100 86 100 100 100 88 18 4 0
61 31 100 99 21 85 100 100 100 100 100 100 89 50 0 0 0 0 0 0 0 0 0 0 0 0 0 5 15 26 77 90 100 100 100 100 100 100 100 100 100 100 100 98 70
98 79 100 100 81 44 47 90 100 100 100 100 30 18 0 0 0 0 0 0 0 0 0 0 0 0 0 2 5 5 20 26 53 79 66 76 100 85 78 64 93 99 100 100 100
100 100 95 100 100 97 30 54 100 100 100 88 18 0 0 0 0 0 0 0 0 0 0 0 0 0 0 0 0 0 3 7 5 5 5 5 68 28 3 4 4 4 41 99 100
100 100 100 100 100 100 100 98 65 96 78 5 6 4 3 1 0 0 0 0 0 0 0 0 0 0 0 0 0 0 0 0 0 0 0 0 0 0 0 0 0 0 0 3 7
100 100 100 100 100 100 100 100 100 100 100 52 86 57 9 60 5 5 0 0 0 0 0 0 0 0 0 0 0 0 0 0 0 0 0 0 0 0 0 0 0 0 0 0 0
100 100 100 100 100 68 98 100 100 100 98 100 100 100 95 96 47 21 5 18 3 0 0 0 0 0 0 0 0 0 0 0 0 0 0 0 0 0 0 0 0 0 0 0 0
100 100 100 100 100 100 96 100 100 100 100 86 100 100 100 93 99 98 58 90 70 72 28 1 23 0 0 0 0 0 0 0 0 0 0 0 0 0 0 0 0 0 0 0 0
100 100 100 100 100 37 21 100 100 100 100 99 89 100 100 100 100 98 99 81 63 94 100 64 52 4 0 0 0 0 0 0 0 0 0 0 0 0 0 0 0 0 0 0 0
100 100 100 100 100 100 74 12 5 92 99 100 100 99 100 100 100 100 100 98 60 100 88 64 20 44 4 0 5 1 0 0 0 0 0 0 0 4 0 0 0 0 0 0 0
100 100 100 100 100 100 100 26 7 12 48 5 66 88 97 100 100 100 100 100 97 75 100 46 5 5 5 5 5 3 5 5 2 0 5 4 2 67 5 1 2 2 0 0 0
52 100 100 100 89 96 100 100 99 34 10 5 73 72 99 78 82 100 100 100 100 99 100 75 22 12 5 5 9 7 5 1 4 5 5 4 11 100 5 5 5 2 0 4 17
5 83 100 100 100 100 100 100 100 100 100 93 100 52 99 100 100 100 100 100 100 100 100 100 99 95 90 71 73 6 5 76 5 63 75 16 78 63 62 16 5 0 0 4 5
8 86 100 100 100 100 100 100 100 100 100 98 99 77 94 100 99 100 100 100 100 100 100 100 100 100 100 100 94 54 91 80 5 5 53 100 99 99 100 27 0 0 0 5 4
12 93 98 100 100 100 100 100 90 97 100 88 98 76 100 100 100 100 100 100 100 100 100 97 96 100 100 100 100 100 36 17 41 67 100 92 96 100 100 3 2 5 5 5 0
50 99 100 100 100 100 100 100 100 100 92 16 94 100 93 90 100 100 100 100 100 100 100 100 84 97 100 100 100 100 100 100 81 99 97 83 100 100 52 5 5 3 0 0 0
9 68 68 58 100 100 100 100 100 100 96 21 6 44 93 100 100 100 100 100 100 100 100 100 100 54 100 100 100 100 100 100 100 92 97 66 95 29 3 0 0 0 0 0 0
11 48 52 58 76 94 100 100 100 100 42 5 5 5 13 70 97 100 100 100 100 100 100 100 100 100 100 100 100 100 100 100 100 100 99 96 97 5 1 5 0 0 0 0 0
7 19 5 10 54 95 100 100 100 100 100 39 77 76 97 100 100 89 100 100 100 100 100 100 90 63 100 100 100 100 100 100 81 99 37 83 11 97 5 1 0 1 5 0 0
84 95 51 71 51 82 100 100 99 87 76 92 90 84 100 100 100 98 100 100 100 100 100 100 100 75 66 100 58 79 96 100 99 29 94 36 5 13 5 5 5 5 5 5 0
77 24 5 82 100 100 47 22 100 100 100 100 100 100 100 100 100 100 100 100 100 100 100 100 100 100 100 100 96 100 100 85 90 70 7 15 52 5 5 5 5 5 5 1 0
63 21 56 5 100 97 86 92 93 100 13 98 100 100 100 100 100 100 97 97 100 100 100 100 100 100 100 100 100 100 92 82 71 84 65 32 5 0 5 7 33 6 0 0 0

GFSSW_prec_cloud_096.txt.gz
Cloud_Cover
100 100 98 73 100 100 100 100 100 100 100 100 90 100 100 100 100 100 27 82 100 100 100 100 100 100 100 100 100 100 100 100 100 100 99 5 4 2 2 29 32 99 100 83 74
100 100 100 88 100 100 100 100 100 100 100 99 61 28 53 81 100 97 66 44 98 100 100 100 100 100 100 100 100 100 100 100 100 100 100 98 27 5 64 78 100 100 94 95 98
100 100 100 100 100 100 100 99 100 100 97 34 26 18 3 25 58 100 100 56 71 58 100 100 100 100 100 100 100 100 100 100 100 100 62 100 100 38 5 68 100 98 98 100 92
100 100 100 100 100 100 94 80 100 100 100 100 56 16 2 0 2 92 98 100 60 9 17 99 100 81 100 100 100 100 100 100 100 100 100 100 36 100 99 15 95 100 98 100 100
100 100 100 94 78 100 100 35 30 92 100 100 100 6 0 0 0 0 4 5 7 52 96 30 30 35 60 54 100 100 100 100 100 100 100 100 100 100 100 100 50 100 96 100 100
99 100 100 100 100 55 100 93 47 48 74 100 97 0 0 0 0 0 0 0 5 14 7 15 64 15 5 5 6 100 100 100 100 100 100 100 100 100 82 10 96 100 87 42 100
100 100 100 100 100 100 33 100 91 100 97 43 38 0 0 0 0 0 0 5 8 14 18 32 7 5 5 5 5 5 22 100 100 100 100 100 100 100 100 100 96 97 100 100 31
100 100 100 100 100 100 83 26 99 100 100 100 2 0 0 0 0 0 0 0 0 0 5 13 7 5 5 5 5 5 5 6 10 24 8 58 100 100 100 100 100 100 100 59 83
100 100 100 100 100 100 100 100 100 100 100 87 0 0 0 0 0 0 0 0 0 0 0 0 0 1 2 3 4 2 4 1 0 0 0 0 13 84 55 23 72 98 100 100 100
100 100 100 100 100 100 100 100 100 100 95 46 42 2 1 5 2 0 0 0 0 0 0 0 0 0 0 0 0 0 0 0 0 0 0 0 0 5 5 5 5 5 5 5 18
100 100 100 100 100 100 100 100 100 100 100 100 92 83 100 17 5 5 4 0 0 0 0 0 0 0 0 0 0 0 0 0 0 0 0 0 0 0 3 3 4 5 5 4 0
56 100 100 100 100 100 100 100 100 100 100 100 100 100 100 100 68 6 5 5 20 3 0 0 0 0 0 0 0 0 0 0 0 0 0 0 0 0 0 0 0 0 0 0 0
23 93 100 100 100 100 100 100 100 100 100 96 100 100 100 100 100 100 100 5 10 23 5 21 2 0 0 0 0 0 0 0 0 0 0 0 0 0 0 0 0 0 0 0 0
7 70 50 100 100 100 100 100 5 30 29 100 97 95 100 100 100 100 100 100 97 8 92 62 40 19 7 0 0 0 0 0 0 0 0 0 0 0 0 0 0 0 0 0 0
62 5 9 75 97 100 100 100 100 11 5 4 98 100 100 100 100 100 100 100 100 100 100 12 57 100 100 52 71 0 0 0 0 0 0 0 0 0 0 0 0 0 0 0 0
100 50 33 5 7 95 100 100 100 100 100 63 5 4 30 98 100 100 100 100 100 100 100 100 91 99 64 5 52 11 44 16 5 5 2 6 3 5 5 5 0 0 0 0 0
66 5 27 5 5 27 100 100 100 100 100 100 63 80 76 33 67 86 77 96 100 100 100 99 98 100 87 5 5 5 5 40 71 100 63 90 62 59 31 85 5 0 0 0 0
100 100 56 5 5 6 92 100 100 100 100 100 100 100 100 96 79 87 99 100 87 94 100 100 100 100 100 46 14 100 100 100 100 100 100 100 94 100 54 32 5 4 0 0 3
100 100 97 5 5 12 96 100 100 100 100 99 100 100 100 100 100 99 100 99 100 80 91 100 100 100 100 100 81 100 68 100 91 99 96 94 94 99 95 68 5 0 3 5 6
100 100 5 0 5 5 99 100 100 100 100 100 88 100 100 100 100 86 91 72 100 93 96 100 100 100 100 100 100 100 100 99 100 98 100 98 100 100 72 100 56 5 5 31 14
100 96 32 4 5 7 95 100 100 100 100 100 83 58 34 88 96 100 78 84 83 100 100 100 100 100 100 100 100 100 100 100 100 98 100 99 85 100 31 46 95 15 5 1 5
100 100 100 13 17 5 81 51 67 64 100 67 78 100 100 99 68 100 55 96 97 62 100 100 100 100 100 100 100 97 98 100 100 96 100 100 61 86 100 100 100 5 5 5 5
100 100 100 18 27 6 15 45 6 5 53 42 97 100 100 91 95 21 75 88 96 100 92 100 100 100 100 100 100 100 100 100 100 100 100 100 100 100 100 90 20 98 6 5 3
100 100 54 6 5 5 5 17 19 22 37 96 100 92 100 72 82 72 75 92 95 97 93 100 100 100 100 100 100 100 100 100 100 100 100 100 100 100 100 100 92 5 5 5 0
100 100 98 66 5 5 5 8 6 41 65 95 100 100 100 100 72 99 77 97 94 96 100 100 100 100 100 100 100 100 100 100 100 96 100 91 96 99 92 31 5 5 5 6 35
100 100 100 88 14 5 54 36 72 76 6 92 83 99 94 88 98 100 100 93 56 44 100 99 100 100 100 100 100 100 100 100 97 52 12 25 85 12 5 5 6 5 68 94 81
100 100 100 98 31 11 59 72 74 71 14 100 100 100 100 69 39 64 69 77 67 85 100 100 100 100 100 100 100 100 100 99 91 88 36 14 6 20 79 97 100 36 26 5 5

GFSSW_prec_cloud_102.txt.gz
Cloud_Cover
100 100 100 100 100 100 100 100 100 100 98 91 92 25 28 100 100 100 100 76 100 48 100 91 100 100 100 100 100 100 100 90 100 100 100 100 87 44 48 6 29 90 100 37 5
100 100 100 100 100 100 99 100 100 64 100 99 16 16 18 15 53 100 100 100 100 60 6 28 100 100 100 100 100 100 100 100 100 100 95 36 10 12 76 97 100 100 100 94 19
100 100 98 100 100 100 100 100 100 100 23 19 24 3 6 0 4 100 100 100 100 32 88 60 9 100 100 100 100 100 100 100 100 100 90 98 100 98 14 89 41 86 100 100 44
100 100 100 100 100 100 100 95 100 100 25 24 25 10 0 0 0 87 100 100 89 100 100 54 19 88 100 100 100 100 100 100 100 100 100 100 100 74 100 100 100 100 100 78 100
100 100 100 100 100 77 100 78 94 68 75 60 34 19 0 0 0 0 5 100 100 77 100 41 5 27 100 100 100 100 100 100 100 62 100 100 100 100 100 100 100 100 100 97 100
100 100 100 100 100 100 69 100 82 100 78 33 77 5 0 0 0 0 0 1 47 100 100 79 47 10 44 100 100 100 100 100 100 100 99 99 97 100 100 100 100 64 57 93 100
73 100 100 100 100 100 100 52 61 1 27 31 31 0 0 0 0 0 0 0 0 4 69 100 83 6 10 5 6 45 100 100 100 100 100 100 100 100 100 100 98 100 99 16 30
99 26 100 100 100 100 100 100 95 10 7 11 27 0 0 0 0 0 0 0 0 0 0 4 81 100 88 5 5 5 6 98 100 100 100 100 100 100 100 99 99 97 98 100 99
100 32 33 100 100 100 100 100 100 100 58 12 2 0 0 0 0 0 0 0 0 0 0 0 1 8 100 98 17 5 3 0 4 78 100 100 100 100 100 100 100 100 98 100 100
100 100 11 100 100 100 100 100 100 100 100 100 29 0 0 0 0 0 0 0 0 0 0 0 0 6 60 99 100 100 8 3 3 4 3 42 100 100 100 100 100 100 100 100 86
100 100 100 100 100 100 100 100 100 100 100 100 100 100 100 3 0 0 0 0 0 0 0 0 0 0 0 2 22 61 100 100 6 4 0 0 0 21 93 100 100 100 100 100 100
94 100 100 17 81 92 100 100 100 100 100 100 100 100 100 100 100 22 37 19 0 0 0 0 0 0 0 0 0 0 1 26 16 5 4 0 0 0 0 4 51 89 100 80 0
31 93 100 100 90 63 93 93 100 100 100 100 100 100 100 100 100 100 100 100 100 96 29 0 0 2 2 0 0 0 0 0 1 2 4 0 0 0 0 0 0 0 0 1 1
5 100 100 100 100 76 31 58 60 100 100 100 100 100 100 100 100 100 100 100 100 100 100 100 99 7 38 2 0 0 0 0 0 0 0 0 0 0 2 3 4 1 0 0 0
34 10 96 100 100 100 100 66 26 66 99 100 100 100 100 100 100 100 100 100 100 100 100 100 100 100 100 100 81 41 1 1 5 5 0 0 0 0 0 0 3 5 13 4 0
40 5 72 100 100 100 62 26 10 9 80 100 100 100 100 100 100 100 100 100 100 100 100 100 100 100 100 100 100 100 100 100 50 26 78 99 61 4 1 7 33 100 100 99 18
5 6 12 100 100 100 100 100 98 97 84 97 87 99 100 100 97 95 100 100 100 100 100 100 100 100 100 100 100 100 100 100 100 100 97 100 96 88 99 100 81 38 81 13 5
88 5 83 72 100 100 100 100 100 100 100 53 79 100 100 100 100 97 95 100 100 100 100 100 100 100 100 100 100 100 100 100 100 88 63 100 100 99 100 69 96 96 90 5 0
100 11 72 87 100 100 100 100 100 100 100 28 22 64 92 80 100 100 100 100 100 100 100 100 100 100 100 100 100 100 100 100 98 59 28 79 90 100 100 100 88 100 100 30 50
100 89 94 100 89 100 100 100 100 100 100 23 18 24 100 97 100 100 100 100 100 100 100 88 48 33 59 100 100 100 98 99 86 82 44 52 100 100 100 100 100 95 98 97 19
100 100 34 100 100 100 100 100 100 100 100 21 34 48 30 100 98 100 100 100 100 100 100 100 100 100 54 5 41 99 100 100 100 73 98 41 31 100 82 100 100 100 97 100 98
100 100 100 94 100 100 100 100 81 100 88 5 3 0 5 12 98 68 100 89 100 100 100 100 100 100 100 100 100 98 74 100 100 77 85 94 27 100 100 100 100 100 100 97 100
100 100 100 100 100 100 100 100 100 100 100 31 14 9 9 36 32 100 100 90 100 100 77 73 100 100 100 100 100 98 100 100 100 90 98 98 12 100 100 100 100 100 100 98 31
100 100 100 100 100 51 100 100 100 100 100 44 5 5 5 33 38 29 99 100 83 99 23 5 18 86 91 50 91 100 100 100 96 100 89 32 39 100 100 100 79 100 100 100 66
100 100 100 100 100 100 100 100 100 100 100 100 16 19 59 34 84 70 39 68 92 44 68 14 44 17 5 21 7 22 77 98 96 48 85 6 41 17 100 100 100 100 100 100 52
100 100 100 100 100 100 100 100 87 100 100 100 100 94 81 51 28 57 10 70 100 84 100 84 74 61 59 36 95 95 89 12 23 100 86 92 58 91 66 100 100 100 98 90 94
100 100 100 100 100 100 100 100 65 59 72 100 100 98 6 54 55 57 64 70 5 73 100 100 100 96 58 89 99 88 6 41 74 69 100 97 55 99 52 100 100 100 100 100 100

GFSSW_prec_cloud_105.txt.gz
Cloud_Cover
100 100 100 100 100 100 100 100 100 100 99 90 100 20 96 19 100 100 100 100 100 100 79 96 100 100 100 100 100 100 5 24 96 100 100 100 100 58 5 5 5 10 40 74 5
100 100 100 100 100 100 100 100 100 100 100 99 39 66 42 11 100 100 100 100 100 100 100 99 100 78 100 100 100 100 100 100 100 100 94 100 25 5 5 1 29 8 59 53 6
100 100 100 100 100 87 100 57 12 74 100 57 37 21 26 3 14 100 100 100 100 100 100 99 100 97 100 100 100 100 100 100 100 100 99 86 90 6 5 2 25 100 32 99 8
100 100 100 100 100 100 95 100 74 13 87 99 32 22 1 0 10 62 100 100 100 100 100 100 100 100 100 100 100 100 100 100 100 100 100 100 100 99 100 99 100 94 100 100 92
100 100 100 100 100 100 100 94 100 53 30 32 93 86 0 0 0 5 100 100 100 99 100 100 94 100 100 100 95 100 100 100 100 100 100 100 100 100 100 100 100 82 100 100 100
100 100 100 100 100 100 100 100 95 29 4 24 86 18 4 0 0 1 6 76 100 100 100 100 100 100 100 98 82 100 100 100 100 100 100 100 100 100 99 97 100 100 98 99 100
100 100 100 100 100 100 100 100 100 100 34 27 79 6 0 0 0 0 4 16 55 100 100 100 100 88 99 100 95 97 64 100 100 100 100 100 100 100 100 100 100 100 100 100 100
24 100 100 100 100 100 100 100 100 100 33 38 34 0 0 0 0 0 0 0 4 5 37 100 100 100 100 99 71 15 46 94 100 100 100 100 100 100 100 72 82 95 100 100 100
0 100 100 100 89 100 100 100 100 100 100 28 4 0 0 0 0 0 0 0 0 0 0 2 72 99 36 38 11 5 5 5 67 78 100 100 100 100 100 100 100 79 80 88 100
1 26 100 100 96 93 100 100 100 100 100 100 17 0 0 0 0 0 0 0 0 0 0 0 0 3 5 17 70 89 30 5 8 5 3 94 100 100 100 100 80 49 100 100 100
22 21 100 88 100 100 98 100 100 100 100 100 100 86 0 0 0 0 0 0 0 0 0 0 0 0 0 0 0 5 15 37 8 5 0 0 5 100 100 100 100 100 100 100 100
30 39 40 100 11 100 79 56 100 100 100 100 100 100 100 100 37 0 0 0 0 0 0 0 0 0 0 0 0 0 0 5 5 54 5 2 4 5 4 1 24 95 100 100 100
33 43 26 9 93 82 50 6 87 100 100 100 100 100 98 84 100 100 37 0 0 0 0 0 0 0 0 0 0 0 0 0 1 4 5 5 5 5 5 1 0 0 4 36 88
44 78 50 37 86 100 100 99 6 97 100 100 100 100 100 100 100 100 100 100 100 100 99 39 2 0 4 70 3 0 0 0 0 0 2 19 40 41 55 61 8 7 3 0 0
50 57 57 66 12 100 100 100 98 38 98 100 100 100 100 100 99 100 100 98 98 100 100 100 100 100 100 100 26 5 0 0 0 0 0 0 0 4 5 5 5 5 5 5 7
46 74 100 88 27 60 100 100 100 100 45 95 87 100 100 100 100 100 100 100 99 100 27 100 100 84 100 100 100 100 100 100 88 70 28 10 1 0 1 0 7 91 74 100 100
99 100 100 100 62 8 99 100 100 88 100 100 98 12 100 100 100 100 100 100 100 99 100 100 84 36 62 72 99 90 99 89 80 96 100 100 98 98 100 100 100 99 23 23 98
96 100 100 100 100 100 99 100 100 100 100 100 98 80 11 69 100 100 100 100 100 100 100 100 100 100 100 100 100 100 68 51 51 93 16 12 4 96 100 100 100 100 89 83 100
100 100 100 100 100 100 100 100 100 100 100 99 23 24 45 93 99 98 100 100 100 100 100 100 100 100 100 100 96 100 100 100 72 23 14 78 100 100 100 46 98 100 100 99 90
100 100 100 100 100 100 100 100 100 100 100 100 100 93 9 81 100 100 46 100 100 100 100 100 100 100 100 100 100 100 100 100 97 65 29 19 93 100 100 90 78 100 100 91 87
100 100 100 100 100 100 100 100 100 100 100 100 100 100 100 76 56 100 98 59 6 59 100 100 100 100 100 100 100 100 100 100 100 64 13 5 5 12 99 95 45 75 100 100 96
100 100 100 100 100 100 100 100 100 100 100 100 100 100 100 92 5 10 62 84 9 100 5 100 100 100 100 100 23 94 100 100 93 74 38 36 4 86 100 18 73 83 100 100 100
100 100 100 100 100 100 100 100 100 100 100 100 99 97 74 26 31 4 5 5 5 60 95 88 42 100 100 100 100 100 73 91 97 100 100 100 93 100 89 87 32 6 100 100 29
100 100 100 100 100 100 100 100 100 99 99 100 98 100 100 100 80 6 2 5 3 3 38 100 98 55 98 100 100 100 100 100 98 99 64 62 11 98 86 40 5 17 6 10 89
100 100 100 100 100 100 100 100 100 100 100 79 100 100 100 100 39 8 53 19 92 20 5 46 100 100 100 100 100 100 68 45 98 96 60 37 5 12 5 5 5 5 3 3 4
100 100 100 100 100 100 100 100 100 100 100 100 55 100 100 100 100 100 69 5 5 5 5 88 83 37 99 58 96 100 32 40 5 5 5 5 40 4 6 6 82 26 5 5 18
100 100 100 100 100 100 100 100 100 100 100 100 100 91 86 100 100 100 100 92 5 2 5 44 94 100 93 5 12 6 6 27 11 5 22 10 91 10 68 88 44 47 12 5 5